Notices

What's New in latest Release from April 7th, 2021:

- Updated Glossary, including Speed of Maximum Gust, and Total Hourly Precipitation

- Updated national and regional climate services offices contacts and prices information

- Addition of station inventory lists for 1981-2010, 1971-2000, and 1961-1990 Normals.

If you haven't already, please take our survey and provide feedback about our website: https://eccc.sondage-survey.ca/f/LanguageSelection.aspx?s=442ca660-fcf1-47c0-95a9-59707d6fd709

Hourly Data Report for January 24, 2017

TORONTO CITY
ONTARIO

43°40'00.000" N
79°24'00.000" W
112.50 m
6158355
71508
XTO

Download Data

Hourly Data (January 2017)
Hourly Data Report for January 24, 2017
TIME
LST
Temp Definition
°C
Dew Point Definition
°C
Rel Hum Definition
%
Precip. Amount Definition
mm

Wind Dir Definition
10's deg

Wind Spd Definition
km/h
Visibility Definition
km
Stn Press Definition
kPa
Hmdx Definition


Wind Chill Definition


Weather Definition


00:00 1.6 -2.1 77 0.0 LegendMM LegendMM   99.42     LegendNANA
01:00 1.3 -2.5 76 0.0 LegendMM LegendMM   99.39     LegendNANA
02:00 1.2 -2.8 75 0.0 LegendMM LegendMM   99.35     LegendNANA
03:00 0.9 -3.3 74 0.0 LegendMM LegendMM   99.31     LegendNANA
04:00 0.8 -3.4 74 0.0 LegendMM LegendMM   99.28     LegendNANA
05:00 0.8 -3.8 71 0.0 LegendMM LegendMM   99.24     LegendNANA
06:00 0.8 -3.8 71 0.0 LegendMM LegendMM   99.24     LegendNANA
07:00 0.6 -3.7 73 0.0 LegendMM LegendMM   99.26     LegendNANA
08:00 0.4 -3.8 73 0.0 LegendMM LegendMM   99.29     LegendNANA
09:00 0.5 -4.2 71 0.0 LegendMM LegendMM   99.28     LegendNANA
10:00 1.1 -3.8 69 0.0 LegendMM LegendMM   99.27     LegendNANA
11:00 1.3 -3.8 69 0.0 LegendMM LegendMM   99.24     LegendNANA
12:00 1.8 -3.4 69 0.0 LegendMM LegendMM   99.17     LegendNANA
13:00 1.5 -3.1 71 0.0 LegendMM LegendMM   99.13     LegendNANA
14:00 1.1 -2.4 78 0.0 LegendMM LegendMM   99.08     LegendNANA
15:00 0.8 -1.6 84 0.2 LegendMM LegendMM   99.09     LegendNANA
16:00 0.5 -1.4 87 0.3 LegendMM LegendMM   99.09     LegendNANA
17:00 0.8 -2.1 81 0.0 LegendMM LegendMM   99.13     LegendNANA
18:00 1.2 -2.0 79 0.0 LegendMM LegendMM   99.14     LegendNANA
19:00 1.3 -2.0 78 0.0 LegendMM LegendMM   99.18     LegendNANA
20:00 1.5 -1.8 79 0.0 LegendMM LegendMM   99.21     LegendNANA
21:00 1.6 -1.6 79 0.0 LegendMM LegendMM   99.20     LegendNANA
22:00 1.7 -1.7 78 0.0 LegendMM LegendMM   99.18     LegendNANA
23:00 1.8 -2.8 71 0.0 LegendMM LegendMM   99.16     LegendNANA

Notes on Data Quality.

Legend

  • E = Estimated
  • M = Missing
  • NA = Not Available*
  • [empty] = Indicates an unobserved value
Date modified: